Regional Weather Roundup
Issued by NWS Northern Indiana

Home | Current Version | Previous Version | Text Only | Print | Product List | Glossary Off
Versions: 1 2 3 4 5 6 7 8 9 10 11 12 13 14 15 16 17 18 19 20 21 22 23 24 25 26 27 28 29 30 31 32 33 34 35 36 37 38 39 40 41 42 43 44 45 46 47 48 49 50

000
ASUS43 KIWX 020400
RWRIWX

KIWX WEATHER ROUNDUP
NATIONAL WEATHER SERVICE NORTHERN INDIANA
1200 AM EDT MON MAY 02 2016

NOTE: "FAIR" INDICATES FEW OR NO CLOUDS BELOW 12,000 FEET WITH NO
SIGNIFICANT WEATHER AND/OR OBSTRUCTIONS TO VISIBILITY.

* THESE STATIONS ARE NOT UNDER NWS QUALITY CONTROL. THEY ALSO MAY NOT
  REPORT WEATHER SUCH AS PRECIPITATION OR FOG.

INZ001>027-020500-
NORTHERN INDIANA

CITY           SKY/WX    TMP DP  RH WIND       PRES   REMARKS
SOUTH BEND     RAIN      50  48  93 NE6       29.96R
GOSHEN         LGT RAIN  51  49  92 N5        29.94S FOG
ANGOLA*        CLOUDY    48  39  71 NE9       29.93F
FORT WAYNE     RAIN      52  50  93 E14       29.93F FOG
PERU/GRISSOM   CLOUDY    55  55 100 NE9       29.90R

$$
INZ028>050-020500-
CENTRAL INDIANA

CITY           SKY/WX    TMP DP  RH WIND       PRES   REMARKS
LAFAYETTE      CLOUDY    54  52  93 NW13      29.92R
KOKOMO*        CLOUDY    55  52  88 N7        29.91R
MUNCIE*        CLOUDY    58  55  90 NE9       29.89R
INDIANAPOLIS   CLOUDY    60  56  86 N9        29.87R

$$
MIZ043>046-050>051-056>058-064>065-071>073-077>080-020500-
SOUTHWEST LOWER MICHIGAN

CITY           SKY/WX    TMP DP  RH WIND       PRES   REMARKS
BATTLE CREEK   RAIN      46  42  86 NE7       29.98R FOG
BENTON HARBOR  LGT RAIN  48  45  89 NE10      29.97F
COLDWATER*     RAIN      48  46  93 CALM      29.98R
HILLSDALE*     RAIN      47  46  99 E10       29.94F
HOLLAND        RAIN      47  39  74 E7        30.03R
GRAND RAPIDS   CLOUDY    47  38  71 E13       30.01R
KALAMAZOO      LGT RAIN  47  42  83 NE10G18   29.95F
STURGIS*       LGT RAIN  48  46  95 NE14      29.95R
THREE RIVERS*  MIX PCPN  48  46  95 E5        29.96R

$$
OHZ001>008-015>018-024>025-020500-
NORTHWEST OHIO

CITY           SKY/WX    TMP DP  RH WIND       PRES   REMARKS
DEFIANCE       HVY RAIN  51  48  89 NE7       29.97R FOG
FINDLAY        TSTM      52  47  83 NE16      29.89F
TOLEDO EXPRESS CLOUDY    49  46  90 NE9       29.93F
TOLEDO METCALF CLOUDY    50  46  86 NE9       29.95F FOG
LIMA           LGT RAIN  52  51  97 NE12      29.89F

$$
AND FOR LAKE MICHIGAN COASTAL AND OPEN LAKE BUOY OBSERVATIONS

STATION/POSITION TEMP    WIND        PRES    VSBY  WAVE
                 AIR SEA DIR/SP/G                  HT/PER
                 (F)     (DEG/KT/KT) (MB)    (MI)  (FT/S)
CALUMET HARBOR    46                 1014.6R
MICHIGAN CITY     48      30/ 15/ 17   N/A
BURNS HARBOR      47      30/ 17/ 20 1015.2S
SAINT JOSEPH      49     210/ 13/ 15 1018.3R
SOUTH LAKE BUOY   44 40   50/ 10/ 10 1016.2          2/ 5
4 MI NW BRIDGMAN  49 47                N/A           2/ 4

$$
&&



USA.gov is the U.S. government's official web portal to all federal, state and local government web resources and services.